#timestamp,LO_Frequency,Hit,StdDev 
1617908415.3,286047003.8,P
1617908435.1,286047004.8,P
1617908436.0,286047004.8,P
1617908455.8,286047004.1,Y
1617908475.7,286047000.3,P
1617908495.5,286047004.1,N
1617908515.3,286047000.7,N
1617908535.2,286046997.4,N
1617908555.0,286046997.9,N
1617908555.9,286046997.9,N
1617908575.8,286046999.4,N
1617908595.6,286047000.6,N
1617908615.4,286046998.1,N
1617908635.3,286046997.4,N
1617908655.1,286046995.6,N
1617908675.8,286046995.5,N
1617908695.7,286047000.0,N
1617908715.5,286046998.1,N
1617908735.4,286046998.5,N
1617908755.2,286047002.0,N
1617908775.0,286046998.5,N
1617908775.9,286046998.5,N
1617908795.8,286046996.8,N
1617908815.6,286046995.4,N
1617908835.4,286047001.1,N
1617908855.3,286047000.0,N
1617908875.1,286046998.7,N
1617908895.9,286047000.6,N
1617908915.7,286046998.1,N
1617908935.5,286046999.6,N
1617908955.4,286046999.4,N
1617908975.2,286046996.8,N
1617908995.0,286046998.3,N
1617908995.9,286046998.3,N
1617909015.8,286046998.5,N
1617909035.6,286047002.2,N
1617909055.5,286047000.6,N
1617909075.3,286046998.9,N
1617909095.1,286047001.6,N
1617909115.9,286047003.1,N
1617909135.7,286047004.1,N
1617909155.5,286046999.9,N
1617909175.4,286046999.2,N
1617909195.2,286046999.3,N
1617909215.1,286046998.2,N
1617909216.0,286046998.2,N
1617909235.8,286047000.4,N
1617909255.6,286046998.2,N
1617909275.5,286047000.8,N
1617909295.3,286047002.7,N
1617909315.2,286046998.5,N
1617909335.9,286046998.5,N
1617909355.7,286047001.9,N
1617909375.6,286047000.2,N
1617909395.4,286046999.8,N
1617909415.2,286046998.2,N
1617909435.1,286046998.8,N
1617909436.0,286046998.8,N
1617909455.8,286047001.1,N
1617909475.7,286046998.9,N
1617909495.5,286047014.4,Y
1617909515.3,286047014.5,P
1617909535.2,286047015.1,N
1617909555.0,286047011.8,N
1617909555.9,286047011.8,N
1617909575.8,286047008.6,N
1617909595.6,286047006.6,N
1617909615.4,286047005.8,N
1617909635.3,286047004.4,N
1617909655.1,286047001.4,N
1617909675.8,286047001.8,N
1617909695.7,286047002.5,N
1617909715.5,286047002.3,N
1617909735.4,286047002.7,N
1617909755.2,286046998.1,N
1617909775.0,286047000.9,N
1617909775.9,286047000.9,N
1617909795.8,286047001.0,N
1617909815.6,286047000.8,N
1617909835.4,286046998.9,N
1617909855.3,286046999.0,N
1617909875.1,286046997.3,N
1617909895.9,286046995.1,N
1617909915.7,286046994.6,N
1617909935.5,286046994.2,N
1617909955.4,286046993.6,N
1617909975.2,286046994.8,N
1617909995.0,286046993.6,N
1617909995.9,286046993.6,N
1617910015.8,286046995.6,N
1617910035.6,286046993.7,N
1617910055.5,286046995.5,N
1617910075.3,286046995.6,N
1617910095.1,286046993.9,N
1617910115.9,286046996.3,N
1617910135.7,286046995.7,N
1617910155.5,286046997.4,N
1617910175.4,286046998.3,N
1617910195.2,286046998.8,N
1617910215.0,286046998.1,N
1617910216.0,286046998.1,N
1617910235.8,286046999.9,N
1617910255.6,286047000.7,N
1617910275.5,286047000.7,N
1617910295.3,286046997.0,N
1617910315.1,286046997.1,N
1617910335.9,286046997.8,N
1617910355.7,286046995.4,N
1617910375.6,286046995.7,N
1617910395.4,286046995.9,N
1617910415.2,286046993.5,Y
1617910435.1,286046999.0,P
1617910436.0,286046999.0,N
1617910455.8,286046996.9,N
1617910475.7,286046997.4,N
1617910495.5,286047001.1,N
1617910515.3,286047001.0,N
1617910535.2,286046998.8,N
1617910555.0,286046997.0,N
1617910555.9,286046997.0,N
1617910575.8,286046999.5,N
1617910595.6,286046996.6,N
1617910615.4,286046996.6,N
1617910635.3,286046997.9,N
1617910655.1,286046996.1,N
1617910675.9,286046999.6,N
1617910695.7,286046998.2,N
1617910715.5,286047002.7,N
1617910735.4,286047001.2,N
1617910755.2,286047001.1,N
1617910775.0,286047001.1,N
1617910775.9,286047001.1,N
1617910795.8,286046998.8,N
1617910815.6,286046999.1,N
1617910835.5,286046998.4,N
1617910855.3,286046999.5,N
1617910875.1,286046997.3,N
1617910895.9,286046999.2,N
1617910915.7,286046999.4,N
1617910935.6,286046997.0,N
1617910955.4,286046996.7,N
1617910975.2,286046998.8,N
1617910995.1,286046997.2,N
1617910996.0,286046997.2,N
1617911015.8,286046999.6,N
1617911035.6,286046998.9,N
1617911055.5,286046998.9,N
1617911075.3,286047000.8,N
1617911095.2,286047001.0,N
1617911115.0,286046999.0,N
1617911115.9,286046999.0,N
1617911135.7,286046999.9,N
1617911155.6,286047002.5,N
1617911175.4,286046999.8,N
1617911195.3,286047002.8,N
1617911215.1,286047001.9,N
1617911216.0,286047001.9,N
1617911235.8,286047002.5,N
1617911255.7,286047002.7,N
1617911275.5,286047002.4,N
1617911295.4,286047000.3,N
1617911315.2,286046999.8,N
1617911335.0,286046998.3,N
1617911335.9,286046998.3,N
1617911355.8,286046998.4,N
1617911375.6,286046999.5,N
1617911395.4,286046998.4,N
1617911415.3,286046999.9,N
1617911435.1,286047004.4,N
1617911455.9,286047001.4,N
1617911475.7,286047002.6,N
1617911495.5,286047001.7,N
1617911515.4,286047003.2,N
1617911535.2,286047004.0,N
1617911555.0,286047000.6,N
1617911555.9,286047000.6,N
1617911575.8,286046998.3,N
1617911595.6,286046998.8,N
1617911615.5,286046999.5,N
1617911635.3,286046997.1,N
1617911655.1,286046997.8,N
1617911675.9,286046997.2,N
1617911695.7,286047000.0,N
1617911715.6,286046999.8,N
1617911735.4,286047011.9,Y
1617911755.2,286047005.4,P
1617911775.1,286047004.4,N
1617911776.0,286047004.4,N
1617911795.8,286047002.4,N
1617911815.6,286047000.1,N
1617911835.5,286047001.6,N
1617911855.3,286047003.8,N
1617911875.2,286047003.0,N
1617911895.9,286047004.3,N
1617911915.7,286047004.3,N
1617911935.6,286047001.4,N
1617911955.4,286047004.4,N
1617911975.2,286047001.4,N
1617911995.1,286047004.3,N
1617911996.0,286047004.3,N
